(487685) = 2015 PR289

Discovered at Catalina on 2007-11-03 by CSS.

Orbit

Orbit type: Main Belt

Note: WebGL enabled browser required.

epoch2023-09-13.0
epoch JD2460200.5
perihelion date2020-10-24.18512
perihelion JD2459146.68512
argument of perihelion (°)328.16809
ascending node (°)111.82154
inclination (°)13.94716
eccentricity0.1550960
perihelion distance (AU)2.2100372
Tisserand w.r.t. Jupiter3.3
ΔV w.r.t. Earth (km/sec)10.3
semimajor axis (AU)2.6157258
mean anomaly (°)245.51603
mean daily motion (°/day)0.23297830
aphelion distance (AU)3.021
period (years)4.23
P-vector [x]0.15939111
P-vector [y]0.94877884
P-vector [z]0.27278781
Q-vector [x]-0.96152353
Q-vector [y]0.08656954
Q-vector [z]0.26072631
absolute magnitude17.0
phase slope0.15
uncertainty0
referenceMPEC 2023-P11
observations used176
oppositions10
arc length (days)5740
first opposition used2007
last opposition used2023
residual rms (arc-secs)0.81
perturbers coarse indicatorM-v
perturbers precise indicator003Ek
first observation date used2007-11-03.0
last observation date used2023-07-22.0
computer nameMPCLINUX
JD of orbit computation2457812.214253
perihelion JD uncertainty (days)1.0298E-04
argument of perihelion uncertainty (°)3.1797E-05
ascending node uncertainty (°)2.0506E-05
inclination uncertainty (°)5.5937E-06
eccentricity uncertainty 3.7672E-08
perihelion distance uncertainty (AU)8.9577E-08
Minimum Orbit Intersection Distances (in AU)
for orbit epoch: 2460200.5, reference: E2023-P11
Mercury1.90886
Venus1.49849
Earth1.23645
Mars0.6381
Jupiter2.2111
Saturn6.82842
Uranus15.8784
Neptune27.3332

Observations

185 total observations over interval: 2007 11 03.42514 – 2023 07 22.481521
These data are available for download (format description).

Date (UT) J2000 RA J2000 Dec Magn Location Ref
2007 11 03.42514 03 59 29.65 -01 15 09.3 20.1 V 703 – Catalina Sky Survey MPS 674273
2007 11 03.43163 03 59 29.25 -01 15 11.1 19.8 V 703 – Catalina Sky Survey MPS 674273
2007 11 03.43816 03 59 28.93 -01 15 11.3 19.6 V 703 – Catalina Sky Survey MPS 674273
2007 11 03.44464 03 59 28.57 -01 15 13.5 19.6 V 703 – Catalina Sky Survey MPS 674273
2007 11 15.23255 03 49 06.13 -01 29 11.2 19.6 V 703 – Catalina Sky Survey MPS 674273
2007 11 15.23925 03 49 05.70 -01 29 12.4 20.0 V 703 – Catalina Sky Survey MPS 674273
2007 11 15.24574 03 49 05.41 -01 29 11.0 19.3 V 703 – Catalina Sky Survey MPS 674273
2007 11 15.25228 03 49 04.94 -01 29 11.8 19.4 V 703 – Catalina Sky Survey MPS 674273
2007 12 05.25255 03 30 17.96 -00 32 41.4 20.4 V 703 – Catalina Sky Survey MPS 778800
2007 12 05.25904 03 30 17.60 -00 32 37.7 19.6 V 703 – Catalina Sky Survey MPS 778800
2007 12 05.26558 03 30 17.35 -00 32 35.6 19.9 V 703 – Catalina Sky Survey MPS 778800
2007 12 05.27208 03 30 16.99 -00 32 33.6 20.0 V 703 – Catalina Sky Survey MPS 778800
2011 09 08.55558 01 57 07.402 -10 24 57.07 20.8 i F51 – Pan-STARRS 1, Haleakala MPS 778800
2011 09 08.58066 01 57 07.159 -10 25 10.35 21.0 r F51 – Pan-STARRS 1, Haleakala MPS 778800
2011 09 08.58755 01 57 07.082 -10 25 13.85 21.0 r F51 – Pan-STARRS 1, Haleakala MPS 778800
2014 06 05.50015 17 23 34.252 -11 33 13.22 21.1 w F51 – Pan-STARRS 1, Haleakala MPS 674273
2014 06 05.51520 17 23 33.387 -11 33 14.73 21.1 w F51 – Pan-STARRS 1, Haleakala MPS 674273
2014 06 05.53023 17 23 32.518 -11 33 16.35 21.0 w F51 – Pan-STARRS 1, Haleakala MPS 674273
2014 06 24.31267 17 06 08.36 -12 18 58.5 20.9 V G96 – Mt. Lemmon Survey MPS 674273
2014 06 24.31777 17 06 08.12 -12 18 59.4 21.1 V G96 – Mt. Lemmon Survey MPS 674273
2014 06 24.32288 17 06 07.82 -12 19 00.0 21.1 V G96 – Mt. Lemmon Survey MPS 674273
2014 06 24.32798 17 06 07.57 -12 19 01.5 21.4 V G96 – Mt. Lemmon Survey MPS 674273
2014 07 02.32963 16 59 31.894 -12 46 27.01 21.4 w F51 – Pan-STARRS 1, Haleakala MPS 778800
2014 07 02.34226 16 59 31.293 -12 46 29.80 21.3 w F51 – Pan-STARRS 1, Haleakala MPS 778800
2014 07 02.35487 16 59 30.695 -12 46 32.62 21.2 w F51 – Pan-STARRS 1, Haleakala MPS 778800
2014 07 02.36746 16 59 30.095 -12 46 35.52 21.3 w F51 – Pan-STARRS 1, Haleakala MPS 778800
2014 07 04.34974 16 58 01.181 -12 54 02.24 20.8 i F51 – Pan-STARRS 1, Haleakala MPS 778800
2014 07 04.36267 16 58 00.597 -12 54 05.33 21.0 i F51 – Pan-STARRS 1, Haleakala MPS 778800
2014 07 04.37558 16 58 00.015 -12 54 08.03 21.0 i F51 – Pan-STARRS 1, Haleakala MPS 778800
2014 07 26.32208 16 46 57.217 -14 30 05.26 21.6 w F51 – Pan-STARRS 1, Haleakala MPS 778800
2014 07 26.33397 16 46 57.026 -14 30 08.52 21.7 w F51 – Pan-STARRS 1, Haleakala MPS 778800
2014 07 26.34583 16 46 56.816 -14 30 12.00 21.7 w F51 – Pan-STARRS 1, Haleakala MPS 778800
2015 08 12.51439 23 57 01.083 -17 39 51.92 21.3 w F51 – Pan-STARRS 1, Haleakala MPS 621345
2015 08 12.52470 23 57 00.896 -17 39 58.20 21.4 w F51 – Pan-STARRS 1, Haleakala MPS 621345
2015 08 12.53501 23 57 00.703 -17 40 03.98 21.4 w F51 – Pan-STARRS 1, Haleakala MPS 621345
2015 08 12.54533 23 57 00.527 -17 40 10.40 21.1 w F51 – Pan-STARRS 1, Haleakala MPS 621345
2015 08 13.53495 23 56 43.652 -17 49 57.82 21.5 w F51 – Pan-STARRS 1, Haleakala MPS 621345
2015 08 13.54525 23 56 43.440 -17 50 03.90 21.1 w F51 – Pan-STARRS 1, Haleakala MPS 621345
2015 08 13.55555 23 56 43.254 -17 50 09.89 21.3 w F51 – Pan-STARRS 1, Haleakala MPS 621345
2015 08 13.56584 23 56 43.048 -17 50 16.22 21.4 w F51 – Pan-STARRS 1, Haleakala MPS 621345
2015 10 05.31770 23 20 11.884 -24 55 41.98 21.0 w F51 – Pan-STARRS 1, Haleakala MPS 778800
2015 10 05.32876 23 20 11.416 -24 55 43.77 21.1 w F51 – Pan-STARRS 1, Haleakala MPS 778800
2015 10 05.33985 23 20 10.944 -24 55 45.19 20.9 w F51 – Pan-STARRS 1, Haleakala MPS 778800
2015 10 08.32929 23 18 15.947 -25 01 37.65 21.0 w F51 – Pan-STARRS 1, Haleakala MPS 631618
2015 10 08.33959 23 18 15.539 -25 01 38.76 21.2 w F51 – Pan-STARRS 1, Haleakala MPS 631618
2015 10 08.34989 23 18 15.131 -25 01 39.72 21.4 w F51 – Pan-STARRS 1, Haleakala MPS 631618
2015 10 08.36021 23 18 14.733 -25 01 40.64 21.2 w F51 – Pan-STARRS 1, Haleakala MPS 631618
2015 10 09.33130 23 17 39.820 -25 03 00.54 21.3 w F51 – Pan-STARRS 1, Haleakala MPS 631618
2015 10 09.34161 23 17 39.423 -25 03 01.36 21.2 w F51 – Pan-STARRS 1, Haleakala MPS 631618
2015 10 09.35192 23 17 39.033 -25 03 02.25 21.1 w F51 – Pan-STARRS 1, Haleakala MPS 631618
2017 01 04.44261 09 58 53.68 +19 12 24.7 20.6 V G96 – Mt. Lemmon Survey MPS 778800
2017 01 04.44698 09 58 53.65 +19 12 27.3 20.6 V G96 – Mt. Lemmon Survey MPS 778800
2017 01 04.45128 09 58 53.57 +19 12 30.3 20.4 V G96 – Mt. Lemmon Survey MPS 778800
2017 01 04.45568 09 58 53.54 +19 12 33.4 20.3 V G96 – Mt. Lemmon Survey MPS 778800
2017 01 31.43240 09 44 07.24 +24 14 22.6 20.1 V G96 – Mt. Lemmon Survey MPS 778800
2017 01 31.43971 09 44 06.84 +24 14 27.4 20.1 V G96 – Mt. Lemmon Survey MPS 778800
2017 01 31.44608 09 44 06.51 +24 14 31.8 20.0 V G96 – Mt. Lemmon Survey MPS 778800
2017 01 31.45242 09 44 06.23 +24 14 36.5 19.4 V G96 – Mt. Lemmon Survey MPS 778800
2017 01 31.52634 09 44 02.500 +24 15 28.32 20.2 w F51 – Pan-STARRS 1, Haleakala MPS 766225
2017 01 31.53708 09 44 01.927 +24 15 35.60 20.3 w F51 – Pan-STARRS 1, Haleakala MPS 766225
2017 01 31.54781 09 44 01.351 +24 15 42.98 20.2 w F51 – Pan-STARRS 1, Haleakala MPS 766225
2017 02 04.52327 09 40 33.591 +25 00 18.43 20.2 w F51 – Pan-STARRS 1, Haleakala MPS 766225
2017 02 04.53581 09 40 32.888 +25 00 26.63 20.2 w F51 – Pan-STARRS 1, Haleakala MPS 766225
2017 02 04.54829 09 40 32.197 +25 00 34.72 20.2 w F51 – Pan-STARRS 1, Haleakala MPS 766225
2017 02 04.56084 09 40 31.495 +25 00 42.88 20.2 w F51 – Pan-STARRS 1, Haleakala MPS 766225
2017 02 14.48113 09 31 33.406 +26 41 09.58 20.0 i F51 – Pan-STARRS 1, Haleakala MPS 767274
2017 02 14.49403 09 31 32.694 +26 41 16.73 20.2 i F51 – Pan-STARRS 1, Haleakala MPS 767274
2017 02 14.50694 09 31 31.960 +26 41 23.53 20.0 i F51 – Pan-STARRS 1, Haleakala MPS 767274
2017 02 22.19570 09 24 56.06 +27 44 27.7 20.0 V G96 – Mt. Lemmon Survey MPS 768312
2017 02 22.19996 09 24 55.90 +27 44 29.0 20.2 V G96 – Mt. Lemmon Survey MPS 768312
2017 02 22.20421 09 24 55.71 +27 44 30.8 20.3 V G96 – Mt. Lemmon Survey MPS 768312
2017 02 22.20845 09 24 55.49 +27 44 33.1 20.5 V G96 – Mt. Lemmon Survey MPS 768312
2017 02 27.30855 09 21 02.209 +28 17 57.71 20.6 w F51 – Pan-STARRS 1, Haleakala MPS 772154
2017 02 27.32014 09 21 01.687 +28 18 01.80 20.6 w F51 – Pan-STARRS 1, Haleakala MPS 772154
2017 02 27.33170 09 21 01.170 +28 18 05.97 20.5 w F51 – Pan-STARRS 1, Haleakala MPS 772154
2018 05 14.31090 16 17 51.21 -04 34 52.4 20.1 G G96 – Mt. Lemmon Survey MPS 893469
2018 05 14.31604 16 17 50.94 -04 34 52.6 20.2 G G96 – Mt. Lemmon Survey MPS 893469
2018 05 14.32634 16 17 50.34 -04 34 53.5 20.9 G G96 – Mt. Lemmon Survey MPS 893469
2018 05 21.49159 16 11 23.055 -04 28 59.84 21.1 w F51 – Pan-STARRS 1, Haleakala MPS 894970
2018 05 21.50079 16 11 22.548 -04 28 59.63 21.1 w F51 – Pan-STARRS 1, Haleakala MPS 894970
2018 05 21.50360 16 11 22.377 -04 28 59.48 21.1 w F51 – Pan-STARRS 1, Haleakala MPS 894970
2018 05 21.51290 16 11 21.846 -04 28 59.42 21.1 w F51 – Pan-STARRS 1, Haleakala MPS 894970
2018 05 21.51572 16 11 21.692 -04 28 59.34 21.0 w F51 – Pan-STARRS 1, Haleakala MPS 894970
2018 05 21.52492 16 11 21.168 -04 28 59.03 21.2 w F51 – Pan-STARRS 1, Haleakala MPS 894970
2018 05 21.52776 16 11 21.012 -04 28 58.80 21.1 w F51 – Pan-STARRS 1, Haleakala MPS 894970
2018 06 10.41530 15 53 44.617 -04 47 17.99 21.2 w F51 – Pan-STARRS 1, Haleakala MPS 898274
2018 06 10.42766 15 53 43.993 -04 47 19.87 21.1 w F51 – Pan-STARRS 1, Haleakala MPS 898274
2018 06 10.43998 15 53 43.396 -04 47 21.38 21.3 w F51 – Pan-STARRS 1, Haleakala MPS 898274
2018 06 10.45228 15 53 42.810 -04 47 23.50 21.5 w F51 – Pan-STARRS 1, Haleakala MPS 898274
2018 07 13.28413 15 37 31.267 -07 02 58.94 21.6 w F51 – Pan-STARRS 1, Haleakala MPS 907279
2018 07 13.29610 15 37 31.125 -07 03 02.99 22.2 w F51 – Pan-STARRS 1, Haleakala MPS 907279
2018 07 13.30809 15 37 31.025 -07 03 07.07 22.0 w F51 – Pan-STARRS 1, Haleakala MPS 907279
